Flag for Germany Weather past 2 weeks in Schorndorf, Baden-Württemberg, Germany

Now
40 °F

Passing clouds.


Feels Like: 40 °F
Forecast: 41 / 60 °F
Wind: 2 mph from Northwest

Location: Stuttgart-Echterdingen

Current Time: Sep 24, 2014 at 6:30:51 AM

Latest Report: Sep 24, 2014 at 6:00 AM


Visibility: 22 mi

Pressure: 30.05 "Hg

Humidity: 94%

Dew point: 38 °F

Location of SchorndorfLocation

Historic Weather in Schorndorf — Graph

°F

Schorndorf temperature yesterday

Maximum temperature yesterday: 58 °F (at 4:00 PM)
Minimum temperature yesterday: 41 °F (at 7:00 AM)
Average temperature yesterday: 49 °F

Past Weeks' High & Low Weather Summary

 TemperatureHumidityPressure
High76 °F (Sep 19, 2:00 PM)99% (Sep 17, 9:00 AM)30.24 "Hg (Sep 17, 9:00 AM)
Low40 °F (Sep 24, 5:00 AM)51% (Sep 9, 4:00 PM)29.83 "Hg (Sep 17, 5:00 PM)
Average59 °F83%30.02 "Hg
* Reported Sep 9 6:00 AM — Sep 24 5:00 AM, Schorndorf, Weather by CustomWeather, © 2014

Note: Actual official high and low records may vary slightly from our data, if they occured in-between our weather recording intervals... More about our weather records

Advertising

Schorndorf weather history for previous 24 hours

 ConditionsComfort  
Time TempWeatherWind HumidityBarometerVisibility
5:00 AM
Sep 24
40 °FFog.1 mph96%30.06 "Hg22 mi
4:00 AM40 °FFog.2 mph96%30.07 "Hg22 mi
3:00 AM41 °FClear.1 mph96%30.09 "Hg25 mi
2:00 AM42 °FClear.1 mph95%30.10 "Hg25 mi
1:00 AM43 °FClear.1 mph90%30.11 "Hg25 mi
12:00 AM44 °FClear.1 mph90%30.12 "Hg25 mi
10:00 PM
Sep 23
48 °FClear.1 mph80%30.11 "Hg28 mi
9:00 PM51 °FClear.1 mph75%30.11 "Hg28 mi
8:00 PM53 °FPassing clouds.2 mph69%30.09 "Hg28 mi
7:00 PM55 °FPassing clouds.2 mph67%30.07 "Hg31 mi
6:00 PM57 °FCool.5 mph62%30.07 "HgN/A
4:00 PM58 °FSunny.2 mph57%30.11 "Hg25 mi
3:00 PM57 °FPassing clouds.2 mph57%30.14 "Hg22 mi
2:00 PM56 °FPassing clouds.2 mph59%30.17 "Hg16 mi
1:00 PM54 °FScattered clouds.1 mph65%30.21 "Hg12 mi
12:00 PM52 °FOvercast.1 mph78%30.22 "Hg8 mi
11:00 AM49 °FLow clouds.1 mph83%30.23 "Hg6 mi
10:00 AM47 °FOvercast.1 mph90%30.24 "Hg9 mi
9:00 AM44 °FPartly sunny.1 mph92%30.24 "Hg9 mi
8:00 AM41 °FPartly sunny.No wind94%30.24 "Hg9 mi
7:00 AM41 °FPassing clouds.1 mph93%30.23 "Hg16 mi
6:00 AM42 °FPassing clouds.1 mph95%30.22 "Hg16 mi
Weather by CustomWeather, © 2014

See weather overviewHow to use our weather pages